RYR86DZ EBCI-LFMU

Flight info

Callsign RYR86DZ
Flight time 1h 31m
Altitude 31000
Route CIV N872 LESDO DCT KOVIN DCT DUCRA UM728 RESMI UN857 DISAK DCT DIRMO DCT ETAMO DCT ADEKA DCT MOKDI DCT MEN J27 AFRIC
Aircraft B738/M-SDE3FGILRWY/SB1

Departure

Time 2026-05-01 09:46
Airport Brussels South Charleroi Airport (EBCI)

Arrival

Time 2026-05-01 11:18
Airport Béziers Vias airport (LFMU)
Time Latitude Longitude Altitude Speed Heading
2026-05-01 09:29 50.46923 4.47293 620 ft 0 kts 336°
2026-05-01 09:37 50.46920 4.47295 621 ft 2 kts 336°
2026-05-01 09:38 50.46896 4.47311 620 ft 1 kts 335°
2026-05-01 09:38 50.46889 4.47317 615 ft 1 kts 351°
2026-05-01 09:38 50.46884 4.47319 613 ft 1 kts 38°
2026-05-01 09:39 50.46872 4.47304 619 ft 1 kts 51°
2026-05-01 09:39 50.46870 4.47301 623 ft 0 kts 67°
2026-05-01 09:42 50.46871 4.47303 623 ft 1 kts 67°
2026-05-01 09:42 50.46877 4.47327 620 ft 4 kts 68°
2026-05-01 09:42 50.46917 4.47466 618 ft 9 kts 65°
2026-05-01 09:43 50.46893 4.47631 614 ft 10 kts 158°
2026-05-01 09:43 50.46833 4.47668 611 ft 0 kts 158°
2026-05-01 09:44 50.46825 4.47673 617 ft 3 kts 158°
2026-05-01 09:44 50.46791 4.47694 614 ft 7 kts 158°
2026-05-01 09:45 50.46732 4.47731 618 ft 10 kts 163°
2026-05-01 09:45 50.46542 4.47200 615 ft 85 kts 246°
2026-05-01 09:45 50.46195 4.46013 624 ft 151 kts 244°
2026-05-01 09:46 50.45714 4.44333 1049 ft 172 kts 242°
2026-05-01 09:46 50.45248 4.42669 2114 ft 162 kts 241°
2026-05-01 09:46 50.44780 4.41042 2832 ft 171 kts 240°
2026-05-01 09:46 50.44232 4.39184 3129 ft 203 kts 243°
2026-05-01 09:47 50.43608 4.37049 3361 ft 226 kts 243°
2026-05-01 09:47 50.42934 4.34728 3813 ft 240 kts 244°
2026-05-01 09:47 50.42210 4.32232 4143 ft 259 kts 243°
2026-05-01 09:47 50.41453 4.29618 4885 ft 268 kts 243°
2026-05-01 09:48 50.40893 4.26812 5735 ft 276 kts 264°
2026-05-01 09:48 50.41232 4.23831 6652 ft 282 kts 290°
2026-05-01 09:48 50.42158 4.21096 7473 ft 287 kts 300°
2026-05-01 09:48 50.43240 4.18429 8209 ft 293 kts 301°
2026-05-01 09:49 50.43982 4.16649 8742 ft 295 kts 301°
2026-05-01 09:49 50.45111 4.13932 9557 ft 299 kts 301°
2026-05-01 09:49 50.46243 4.11176 10316 ft 304 kts 301°
2026-05-01 09:49 50.47423 4.08270 10556 ft 328 kts 301°
2026-05-01 09:50 50.48684 4.05142 10831 ft 348 kts 301°
2026-05-01 09:50 50.49993 4.01884 11420 ft 356 kts 300°
2026-05-01 09:50 50.51321 3.98568 12129 ft 361 kts 300°
2026-05-01 09:50 50.52662 3.95211 12863 ft 365 kts 300°
2026-05-01 09:51 50.53864 3.91686 13559 ft 368 kts 285°
2026-05-01 09:51 50.54185 3.87724 14294 ft 366 kts 262°
2026-05-01 09:51 50.53568 3.83901 15038 ft 361 kts 241°
2026-05-01 09:51 50.52175 3.80679 15804 ft 356 kts 223°
2026-05-01 09:52 50.50228 3.78326 16530 ft 354 kts 205°
2026-05-01 09:52 50.47988 3.76712 17282 ft 356 kts 201°
2026-05-01 09:52 50.45692 3.75198 17985 ft 360 kts 200°
2026-05-01 09:52 50.43362 3.73677 18673 ft 364 kts 201°
2026-05-01 09:53 50.41016 3.72122 19287 ft 368 kts 201°
2026-05-01 09:53 50.38644 3.70524 19904 ft 372 kts 201°
2026-05-01 09:53 50.36254 3.68902 20520 ft 376 kts 201°
2026-05-01 09:53 50.33847 3.67267 21133 ft 379 kts 201°
2026-05-01 09:54 50.31417 3.65619 21755 ft 382 kts 201°
2026-05-01 09:54 50.28969 3.63963 22362 ft 385 kts 201°
2026-05-01 09:54 50.26498 3.62293 22937 ft 389 kts 201°
2026-05-01 09:54 50.24002 3.60607 23514 ft 392 kts 201°
2026-05-01 09:55 50.21487 3.58911 24047 ft 395 kts 201°
2026-05-01 09:55 50.18953 3.57204 24531 ft 398 kts 201°
2026-05-01 09:55 50.16401 3.55491 25008 ft 401 kts 201°
2026-05-01 09:55 50.13834 3.53772 25488 ft 403 kts 201°
2026-05-01 09:56 50.11259 3.52048 26066 ft 402 kts 200°
2026-05-01 09:56 50.08696 3.50335 26728 ft 399 kts 200°
2026-05-01 09:56 50.06148 3.48632 27385 ft 397 kts 200°
2026-05-01 09:56 50.03614 3.46941 27973 ft 397 kts 200°
2026-05-01 09:57 50.01076 3.45249 28526 ft 396 kts 200°
2026-05-01 09:57 49.98546 3.43565 29139 ft 395 kts 200°
2026-05-01 09:57 49.96025 3.41888 29750 ft 394 kts 200°
2026-05-01 09:57 49.93509 3.40217 30333 ft 393 kts 200°
2026-05-01 09:58 49.91001 3.38552 30807 ft 392 kts 200°
2026-05-01 09:58 49.88496 3.36892 31242 ft 392 kts 200°
2026-05-01 09:58 49.83485 3.33575 31254 ft 389 kts 200°
2026-05-01 09:59 49.78502 3.30283 31252 ft 390 kts 200°
2026-05-01 09:59 49.73532 3.26996 31253 ft 392 kts 200°
2026-05-01 10:00 49.68517 3.23683 31257 ft 392 kts 200°
2026-05-01 10:00 49.63500 3.20378 31238 ft 392 kts 200°
2026-05-01 10:01 49.58496 3.17088 31236 ft 391 kts 200°
2026-05-01 10:01 49.53500 3.13808 31239 ft 390 kts 200°
2026-05-01 10:02 49.48532 3.10494 31241 ft 390 kts 204°
2026-05-01 10:02 49.43931 3.06026 31237 ft 392 kts 210°
2026-05-01 10:03 49.39421 3.01348 31239 ft 391 kts 210°
2026-05-01 10:03 49.34909 2.96723 31237 ft 390 kts 210°
2026-05-01 10:04 49.30384 2.92135 31236 ft 390 kts 210°
2026-05-01 10:04 49.25846 2.87558 31243 ft 391 kts 209°
2026-05-01 10:05 49.21301 2.82985 31232 ft 391 kts 209°
2026-05-01 10:05 49.16750 2.78416 31241 ft 392 kts 209°
2026-05-01 10:06 49.12191 2.73849 31236 ft 392 kts 209°
2026-05-01 10:06 49.07632 2.69290 31241 ft 392 kts 209°
2026-05-01 10:07 49.03076 2.64744 31243 ft 392 kts 209°
2026-05-01 10:07 48.98510 2.60199 31241 ft 391 kts 208°
2026-05-01 10:08 48.91676 2.53417 31237 ft 390 kts 208°
2026-05-01 10:09 48.87132 2.48915 31238 ft 390 kts 208°
2026-05-01 10:09 48.82591 2.44425 31238 ft 389 kts 208°
2026-05-01 10:10 48.78054 2.39949 31240 ft 389 kts 208°
2026-05-01 10:10 48.71239 2.33243 31238 ft 389 kts 208°
2026-05-01 10:11 48.66722 2.28809 31240 ft 390 kts 208°
2026-05-01 10:11 48.62164 2.24345 31246 ft 390 kts 208°
2026-05-01 10:12 48.57553 2.20038 31230 ft 387 kts 201°
2026-05-01 10:12 48.52497 2.17662 31243 ft 378 kts 188°
2026-05-01 10:13 48.49919 2.16864 31233 ft 378 kts 187°
2026-05-01 10:13 48.44756 2.15266 31242 ft 379 kts 188°
2026-05-01 10:14 48.37015 2.12795 31234 ft 379 kts 187°
2026-05-01 10:14 48.31858 2.11140 31226 ft 378 kts 187°
2026-05-01 10:15 48.26690 2.10332 31231 ft 370 kts 173°
2026-05-01 10:15 48.21621 2.11389 31232 ft 368 kts 168°
2026-05-01 10:16 48.16556 2.12508 31239 ft 368 kts 168°
2026-05-01 10:17 48.08890 2.13540 31231 ft 370 kts 174°
2026-05-01 10:17 48.01160 2.13935 31240 ft 371 kts 174°
2026-05-01 10:18 47.93424 2.14363 31240 ft 371 kts 174°
2026-05-01 10:19 47.88268 2.14660 31236 ft 370 kts 174°
2026-05-01 10:19 47.83124 2.14958 31238 ft 370 kts 174°
2026-05-01 10:20 47.75423 2.15403 31252 ft 369 kts 174°
2026-05-01 10:20 47.70297 2.15699 31239 ft 368 kts 174°
2026-05-01 10:21 47.62626 2.16141 31237 ft 368 kts 174°
2026-05-01 10:22 47.54961 2.16581 31244 ft 367 kts 174°
2026-05-01 10:23 47.47323 2.17019 31246 ft 368 kts 174°
2026-05-01 10:23 47.39629 2.17458 31229 ft 369 kts 174°
2026-05-01 10:24 47.29364 2.18042 31242 ft 369 kts 175°
2026-05-01 10:25 47.19100 2.18624 31235 ft 369 kts 175°
2026-05-01 10:26 47.13954 2.18915 31249 ft 370 kts 176°
2026-05-01 10:27 47.03987 2.22002 31243 ft 369 kts 157°
2026-05-01 10:28 46.96843 2.26275 31240 ft 370 kts 158°
2026-05-01 10:28 46.89665 2.30490 31245 ft 371 kts 158°
2026-05-01 10:29 46.82575 2.35050 31239 ft 372 kts 147°
2026-05-01 10:30 46.73932 2.43367 31246 ft 372 kts 147°
2026-05-01 10:31 46.65313 2.51587 31247 ft 368 kts 147°
2026-05-01 10:32 46.58909 2.57654 31245 ft 365 kts 147°
2026-05-01 10:33 46.51105 2.65023 31250 ft 367 kts 148°
2026-05-01 10:34 46.43910 2.71793 31256 ft 375 kts 148°
2026-05-01 10:34 46.40227 2.75251 31253 ft 378 kts 148°
2026-05-01 10:35 46.33601 2.81457 31234 ft 376 kts 148°
2026-05-01 10:35 46.29234 2.85539 31250 ft 374 kts 148°
2026-05-01 10:36 46.22645 2.91680 31259 ft 377 kts 148°
2026-05-01 10:37 46.18227 2.95788 31251 ft 378 kts 148°
2026-05-01 10:37 46.11594 3.01943 31227 ft 380 kts 149°
2026-05-01 10:38 46.07083 3.06115 31263 ft 394 kts 149°
2026-05-01 10:38 46.02458 3.10391 31258 ft 395 kts 149°
2026-05-01 10:39 45.97842 3.14646 31256 ft 393 kts 149°
2026-05-01 10:39 45.95447 3.16492 31240 ft 389 kts 160°
2026-05-01 10:39 45.92871 3.17601 31264 ft 385 kts 169°
2026-05-01 10:40 45.90223 3.18053 31256 ft 382 kts 181°
2026-05-01 10:40 45.87574 3.18043 31267 ft 381 kts 182°
2026-05-01 10:40 45.82272 3.17909 31266 ft 381 kts 182°
2026-05-01 10:41 45.76959 3.17788 31268 ft 383 kts 182°
2026-05-01 10:42 45.68937 3.17660 31256 ft 387 kts 184°
2026-05-01 10:42 45.63523 3.17585 31268 ft 391 kts 184°
2026-05-01 10:43 45.58053 3.17512 31258 ft 394 kts 184°
2026-05-01 10:43 45.52555 3.17441 31243 ft 395 kts 184°
2026-05-01 10:44 45.47069 3.17370 31258 ft 393 kts 184°
2026-05-01 10:44 45.41606 3.17299 31266 ft 392 kts 184°
2026-05-01 10:45 45.36192 3.17229 31267 ft 391 kts 184°
2026-05-01 10:45 45.30751 3.17157 31269 ft 391 kts 185°
2026-05-01 10:46 45.25302 3.17083 31268 ft 392 kts 185°
2026-05-01 10:46 45.19844 3.17014 31275 ft 393 kts 185°
2026-05-01 10:47 45.14377 3.16942 31252 ft 393 kts 184°
2026-05-01 10:47 45.08898 3.16871 31269 ft 394 kts 184°
2026-05-01 10:48 45.03415 3.16800 31273 ft 394 kts 184°
2026-05-01 10:48 44.97949 3.16730 31261 ft 388 kts 184°
2026-05-01 10:49 44.92679 3.16664 31247 ft 367 kts 184°
2026-05-01 10:49 44.90170 3.16632 31256 ft 354 kts 184°
2026-05-01 10:49 44.87748 3.16598 31260 ft 342 kts 184°
2026-05-01 10:49 44.85406 3.16564 31253 ft 331 kts 184°
2026-05-01 10:50 44.83142 3.16531 31262 ft 320 kts 184°
2026-05-01 10:50 44.78772 3.16464 31301 ft 318 kts 184°
2026-05-01 10:51 44.74232 3.16389 31265 ft 329 kts 184°
2026-05-01 10:51 44.71948 3.16357 30960 ft 329 kts 184°
2026-05-01 10:51 44.69652 3.16325 30476 ft 333 kts 184°
2026-05-01 10:51 44.67262 3.16287 29296 ft 355 kts 184°
2026-05-01 10:52 44.64737 3.16248 28387 ft 368 kts 183°
2026-05-01 10:52 44.62178 3.16211 27972 ft 366 kts 184°
2026-05-01 10:52 44.59678 3.15874 27696 ft 357 kts 194°
2026-05-01 10:52 44.57280 3.15065 27361 ft 352 kts 196°
2026-05-01 10:53 44.54913 3.14201 26902 ft 351 kts 196°
2026-05-01 10:53 44.52555 3.13333 26380 ft 350 kts 196°
2026-05-01 10:53 44.50204 3.12474 25939 ft 347 kts 196°
2026-05-01 10:53 44.47877 3.11633 25535 ft 344 kts 196°
2026-05-01 10:54 44.45574 3.10808 25113 ft 341 kts 195°
2026-05-01 10:54 44.43286 3.09992 24678 ft 339 kts 195°
2026-05-01 10:54 44.41001 3.09181 24211 ft 338 kts 195°
2026-05-01 10:54 44.38739 3.08381 23858 ft 333 kts 194°
2026-05-01 10:55 44.36503 3.07591 23436 ft 329 kts 195°
2026-05-01 10:55 44.34321 3.06821 22899 ft 328 kts 195°
2026-05-01 10:55 44.32081 3.06031 22395 ft 327 kts 195°
2026-05-01 10:55 44.29876 3.05254 21890 ft 326 kts 195°
2026-05-01 10:56 44.27695 3.04487 21540 ft 320 kts 195°
2026-05-01 10:56 44.25539 3.03728 21128 ft 317 kts 196°
2026-05-01 10:56 44.23427 3.02986 20834 ft 311 kts 195°
2026-05-01 10:56 44.21348 3.02255 20344 ft 312 kts 195°
2026-05-01 10:57 44.19248 3.01517 19830 ft 313 kts 195°
2026-05-01 10:57 44.17148 3.00780 19459 ft 310 kts 195°
2026-05-01 10:57 44.15068 3.00051 19031 ft 309 kts 195°
2026-05-01 10:57 44.12991 2.99323 18627 ft 307 kts 195°
2026-05-01 10:58 44.10931 2.98602 18244 ft 303 kts 195°
2026-05-01 10:58 44.08908 2.97895 17958 ft 296 kts 195°
2026-05-01 10:58 44.06920 2.97198 17618 ft 292 kts 195°
2026-05-01 10:58 44.04963 2.96512 17330 ft 287 kts 195°
2026-05-01 10:59 44.03049 2.95842 17037 ft 282 kts 195°
2026-05-01 10:59 44.01156 2.95180 16772 ft 279 kts 195°
2026-05-01 10:59 43.99273 2.94521 16462 ft 280 kts 195°
2026-05-01 10:59 43.97370 2.93855 16171 ft 285 kts 195°
2026-05-01 11:00 43.95412 2.93170 15868 ft 295 kts 195°
2026-05-01 11:00 43.93410 2.92471 15555 ft 298 kts 194°
2026-05-01 11:00 43.91417 2.91776 15239 ft 293 kts 194°
2026-05-01 11:00 43.89450 2.91091 14930 ft 289 kts 195°
2026-05-01 11:01 43.87518 2.90419 14633 ft 284 kts 194°
2026-05-01 11:01 43.85614 2.89755 14317 ft 280 kts 194°
2026-05-01 11:01 43.83737 2.89102 14020 ft 277 kts 194°
2026-05-01 11:01 43.81878 2.88456 13686 ft 274 kts 194°
2026-05-01 11:02 43.80047 2.87820 13377 ft 269 kts 194°
2026-05-01 11:02 43.78231 2.87343 13083 ft 265 kts 179°
2026-05-01 11:02 43.76446 2.87894 12879 ft 264 kts 160°
2026-05-01 11:02 43.74817 2.89109 12581 ft 269 kts 149°
2026-05-01 11:03 43.73236 2.90583 12308 ft 281 kts 147°
2026-05-01 11:03 43.71610 2.92154 11989 ft 287 kts 146°
2026-05-01 11:03 43.69979 2.93726 11679 ft 284 kts 147°
2026-05-01 11:03 43.68368 2.95264 11373 ft 279 kts 148°
2026-05-01 11:04 43.66801 2.96749 11098 ft 274 kts 148°
2026-05-01 11:04 43.65237 2.98220 10798 ft 270 kts 147°
2026-05-01 11:04 43.63694 2.99665 10517 ft 266 kts 148°
2026-05-01 11:04 43.62181 3.01077 10384 ft 257 kts 148°
2026-05-01 11:05 43.60724 3.02436 10159 ft 252 kts 148°
2026-05-01 11:05 43.59268 3.03790 9905 ft 254 kts 148°
2026-05-01 11:05 43.57781 3.05169 9642 ft 261 kts 148°
2026-05-01 11:05 43.56255 3.06584 9360 ft 267 kts 148°
2026-05-01 11:06 43.54708 3.08019 9075 ft 267 kts 148°
2026-05-01 11:06 43.53175 3.09441 8832 ft 264 kts 148°
2026-05-01 11:06 43.51655 3.10850 8565 ft 262 kts 148°
2026-05-01 11:07 43.48650 3.13628 8040 ft 259 kts 147°
2026-05-01 11:07 43.47151 3.15012 7734 ft 260 kts 147°
2026-05-01 11:07 43.45647 3.16398 7438 ft 260 kts 147°
2026-05-01 11:07 43.44143 3.17784 7160 ft 260 kts 147°
2026-05-01 11:08 43.42655 3.19155 6994 ft 254 kts 146°
2026-05-01 11:08 43.41204 3.20492 6876 ft 247 kts 146°
2026-05-01 11:08 43.38432 3.23044 6671 ft 233 kts 146°
2026-05-01 11:09 43.37103 3.24264 6555 ft 227 kts 145°
2026-05-01 11:09 43.35811 3.25450 6463 ft 220 kts 145°
2026-05-01 11:09 43.34536 3.26621 6219 ft 221 kts 145°
2026-05-01 11:10 43.31595 3.27174 5746 ft 228 kts 197°
2026-05-01 11:10 43.30189 3.26106 5511 ft 233 kts 209°
2026-05-01 11:10 43.28851 3.24847 5253 ft 234 kts 210°
2026-05-01 11:10 43.27510 3.23580 4989 ft 234 kts 210°
2026-05-01 11:11 43.26135 3.22298 4502 ft 245 kts 210°
2026-05-01 11:11 43.24790 3.20872 4137 ft 254 kts 225°
2026-05-01 11:11 43.24061 3.18670 4015 ft 258 kts 259°
2026-05-01 11:11 43.24189 3.16252 3998 ft 252 kts 280°
2026-05-01 11:12 43.24615 3.13969 3976 ft 242 kts 287°
2026-05-01 11:12 43.25514 3.12092 3986 ft 236 kts 323°
2026-05-01 11:12 43.26955 3.11098 4002 ft 232 kts 350°
2026-05-01 11:12 43.28541 3.10964 3999 ft 226 kts
2026-05-01 11:13 43.30138 3.11144 3596 ft 243 kts
2026-05-01 11:13 43.31809 3.11669 3147 ft 241 kts 36°
2026-05-01 11:13 43.32838 3.13223 3009 ft 210 kts 75°
2026-05-01 11:13 43.33168 3.15082 2791 ft 194 kts 86°
2026-05-01 11:14 43.33270 3.16875 2535 ft 184 kts 94°
2026-05-01 11:14 43.33255 3.18588 2307 ft 176 kts 97°
2026-05-01 11:14 43.33187 3.20236 2075 ft 168 kts 98°
2026-05-01 11:14 43.33107 3.21771 1868 ft 154 kts 98°
2026-05-01 11:15 43.33027 3.23189 1671 ft 145 kts 98°
2026-05-01 11:15 43.32954 3.24503 1518 ft 129 kts 99°
2026-05-01 11:15 43.32888 3.25677 1333 ft 120 kts 100°
2026-05-01 11:15 43.32822 3.26818 1166 ft 120 kts 98°
2026-05-01 11:16 43.32758 3.27949 1027 ft 117 kts 98°
2026-05-01 11:16 43.32695 3.29058 855 ft 117 kts 98°
2026-05-01 11:16 43.32634 3.30205 726 ft 122 kts 97°
2026-05-01 11:16 43.32556 3.31362 558 ft 122 kts 96°
2026-05-01 11:17 43.32498 3.32535 393 ft 123 kts 96°
2026-05-01 11:17 43.32452 3.33692 208 ft 119 kts 99°
2026-05-01 11:17 43.32380 3.34819 62 ft 112 kts 98°
2026-05-01 11:17 43.32324 3.35704 52 ft 65 kts 95°
2026-05-01 11:18 43.32305 3.36047 49 ft 19 kts 95°
2026-05-01 11:18 43.32287 3.36155 48 ft 5 kts 110°
2026-05-01 11:18 43.32301 3.36177 46 ft 1 kts 354°
2026-05-01 11:18 43.32304 3.36154 48 ft 6 kts 264°
2026-05-01 11:19 43.32305 3.36055 49 ft 12 kts 275°
2026-05-01 11:19 43.32311 3.35940 52 ft 12 kts 274°
2026-05-01 11:19 43.32315 3.35862 53 ft 12 kts 274°
2026-05-01 11:19 43.32246 3.35784 52 ft 13 kts 184°
2026-05-01 11:20 43.32157 3.35774 52 ft 13 kts 184°
2026-05-01 11:20 43.32085 3.35728 53 ft 12 kts 258°
2026-05-01 11:20 43.32105 3.35620 52 ft 12 kts 320°
2026-05-01 11:20 43.32128 3.35554 55 ft 12 kts 271°
2026-05-01 11:21 43.32170 3.35418 56 ft 12 kts 291°
2026-05-01 11:21 43.32167 3.35354 55 ft 6 kts 220°
2026-05-01 11:21 43.32146 3.35347 57 ft 2 kts 188°
2026-05-01 11:21 43.32142 3.35331 54 ft 2 kts 284°
2026-05-01 11:22 43.32144 3.35329 55 ft 0 kts 305°